Newton, KS

5:31 AM CST on November 20, 2019 (GMT -0600)
Newton City County

Weather History for KEWK - August, 2019

Change the Weather History Date:

Monday, August 12, 2019

  Actual Average Record
Temperature  
Mean Temperature 84 °F -  
Max Temperature 93 °F 85 °F 102 °F (2010)
Min Temperature 75 °F 64 °F 53 °F (2004)
Cooling Degree Days 19    
Growing Degree Days 34 (Base 50)    
Moisture  
Dew Point 72 °F    
Average Humidity 69    
Maximum Humidity 87    
Minimum Humidity 51    
Precipitation  
Precipitation 0.00 in - - ()
Sea Level Pressure  
Sea Level Pressure 29.81 in    
Wind  
Wind Speed 11 mph (WSW)    
Max Wind Speed 25 mph    
Max Gust Speed 37 mph    
Visibility 10 miles    
Events Thunderstorm    
Averages and records for this station are not official NWS values.
T = Trace of Precipitation, MM = Missing Value Source: NWS Daily Summary

Daily Weather History Graph

Daily Weather History Graph

Search for Another Location

Airport or City:

Astronomy

Aug. 12, 2019 Rise Set
Actual Time 6:41 AM CDT 8:26 PM CDT
Civil Twilight 6:13 AM CDT 8:54 PM CDT
Nautical Twilight 5:38 AM CDT 9:28 PM CDT
Astronomical Twilight 5:02 AM CDT 10:05 PM CDT
Moon 6:55 PM CDT (8/12) 3:53 AM CDT (8/12)
Length of Visible Light 14h 41m
Length of Day
13h 44m
Waxing Gibbous, 93% of the Moon is Illuminated
Aug 12
Waxing Gibbous
Aug 15
Full
Aug 23
Last Quarter
Aug 30
New
Sep 5
First Quarter

Hourly Weather History & Observations

Time (CDT) Temp. Heat Index Dew Point Humidity Pressure Visibility Wind Dir Wind Speed Gust Speed Precip Events Conditions
12:56 AM 81.0 °F 87.3 °F 75.9 °F 85% 29.82 in 10.0 mi South 12.7 mph - N/A   Unknown
1:56 AM 80.1 °F 84.2 °F 73.0 °F 79% 29.80 in 10.0 mi South 12.7 mph - N/A   Unknown
2:56 AM 81.0 °F 84.9 °F 71.1 °F 72% 29.81 in 10.0 mi SSW 13.8 mph - N/A   Unknown
3:56 AM 78.1 °F - 71.1 °F 79% 29.80 in 10.0 mi South 10.4 mph - N/A   Unknown
4:56 AM 77.0 °F - 69.1 °F 76% 29.79 in 10.0 mi SSW 10.4 mph - N/A   Scattered Clouds
5:56 AM 75.9 °F - 66.9 °F 74% 29.77 in 10.0 mi South 13.8 mph - N/A   Partly Cloudy
6:56 AM 75.9 °F - 66.9 °F 74% 29.79 in 10.0 mi SSW 12.7 mph - N/A   Clear
7:56 AM 78.1 °F - 66.9 °F 68% 29.79 in 10.0 mi SSW 15.0 mph - N/A   Clear
8:56 AM 80.1 °F 82.7 °F 68.0 °F 67% 29.79 in 10.0 mi SW 15.0 mph - N/A   Clear
9:56 AM 82.9 °F 87.5 °F 71.1 °F 67% 29.81 in 10.0 mi West 11.5 mph - N/A   Clear
10:56 AM 86.0 °F 91.5 °F 71.1 °F 61% 29.81 in 10.0 mi West 9.2 mph - N/A   Clear
11:56 AM 89.1 °F 96.0 °F 72.0 °F 57% 29.81 in 10.0 mi West 11.5 mph - N/A   Clear
12:56 PM 91.9 °F 100.7 °F 73.0 °F 54% 29.81 in 10.0 mi West 9.2 mph - N/A   Clear
1:56 PM 93.9 °F 104.0 °F 73.9 °F 52% 29.80 in 10.0 mi WSW 5.8 mph - N/A   Unknown
2:56 PM 93.9 °F 105.4 °F 75.0 °F 54% 29.79 in 10.0 mi West 6.9 mph - N/A   Unknown
3:56 PM 93.0 °F 103.2 °F 73.9 °F 54% 29.79 in 10.0 mi WNW 6.9 mph - N/A   Clear
4:56 PM 91.9 °F 103.2 °F 75.0 °F 58% 29.79 in 10.0 mi NNW 4.6 mph - N/A   Clear
5:56 PM 93.9 °F 103.4 °F 73.0 °F 51% 29.78 in 10.0 mi NW 4.6 mph - N/A   Unknown
6:56 PM 87.1 °F 98.8 °F 77.0 °F 72% 29.79 in 10.0 mi North 11.5 mph - N/A   Clear
7:56 PM 84.9 °F 94.1 °F 75.9 °F 74% 29.81 in 10.0 mi NNE 5.8 mph - N/A   Unknown
8:56 PM 82.0 °F 89.4 °F 75.9 °F 82% 29.83 in 10.0 mi NNE 5.8 mph - N/A   Unknown
9:56 PM 80.1 °F 85.4 °F 75.9 °F 87% 29.84 in 10.0 mi North 8.1 mph - N/A   Unknown
10:56 PM 80.1 °F 85.4 °F 75.9 °F 87% 29.88 in 10.0 mi NNE 5.8 mph - N/A   Unknown
11:56 PM 75.9 °F - 69.1 °F 79% 29.94 in 10.0 mi West 25.3 mph 36.8 mph N/A Thunderstorm Unknown